Location: La B�doule
(43.2468°N, 5.5934°E)
Time: 10:28:20
(UTC+00:00)

NOSS 3-1 (A) - Pass Details

Date: 07 June 2020
Orbit: 755 x 1458 km, 63.4° (Epoch: 16 June)

Event Time Altitude Azimuth Distance (km) Brightness Sun altitude
Rises 01:16:18 0° 324° (NW) 3,944 7.1 -20.1°
Reaches altitude 10° 01:18:52 10° 327° (NNW) 3,078 6.5 -19.9°
Maximum altitude 01:26:23 67° 50° (NE) 1,399 4.5 -19.3°
Drops below altitude 10° 01:35:00 10° 133° (SE) 3,505 6.2 -18.6°
Sets 01:38:05 0° 136° (SE) 4,520 6.8 -18.3°
